Weather in Malatya

Turkey     38°21′06″N   38°18′52″E
temp.,
°C
wind,
m/s
gust,
m/s
humid.,
%
clouds,
%
prec.,
mm/h
press.,
hPa
HPBL,
m
14 may, fri
fri1400:00+17s33250 0.0 101318
03:00+15sse33270 0.0 101314
06:00+14s22270 0.0 101411
09:00+21sw04110 0.0 10131101
12:00+24s57120 0.0 10132164
15:00+25ssw56115 0.0 10122161
18:00+23s33140 0.0 10111827
21:00+19s3319100 0.0 101225
15 may, sat
sat1500:00+18s33192 0.0 101315
03:00+15ssw11230 0.0 101211
06:00+15se00290 0.0 101211
09:00+21n21210 0.0 1013613
12:00+24n23150 0.0 10112298
15:00+26n33140 0.0 10083120
18:00+25e11142 0.0 10082246
21:00+21s44170 0.0 100940
16 may, sun
sun1600:00+19s44183 0.0 100834
03:00+18sse331981 0.0 100818
06:00+17sse3326100 0.0 100824
09:00+21sse362346 0.0 10071368
12:00+23s69160 0.0 10071855
15:00+24s81019100 0.0 10061981
18:00+22s7102071 0.0 10051560
21:00+17sse4533100 0.0 100783
17 may, mon
mon1700:00+16sse4440100 0.0 100858
03:00+15sse4337100 0.0 100837
06:00+15sse333686 0.0 100842
09:00+19s161913 0.0 10081378
12:00+21s58184 0.0 10082494
15:00+22ssw57200 0.0 10062922
18:00+20ssw45214 0.0 10062043
21:00+15nnw385251 0.9 1012955
18 may, tue
tue1800:00+13wsw22550 0.0 101277
03:00+12wnw22580 0.0 101247
06:00+12w22610 0.0 101336
09:00+16nw36420 0.0 10141214
12:00+20nw79270 0.0 10131984
15:00+22nnw79230 0.0 10122257
18:00+22nnw79270 0.0 10111953
21:00+17nnw22360 0.0 101428